DW6059 Weather Reports


time (UTC)temp
C
wind
direction
speed
KPH
gust
KPH
rain 1hr
cm
rain 24hr
cm
rain mn
cm
humidity
%
barometer
mb
20260510190056 30 296 0.0 3.2 0.00 0.00 0.00 36 1012.6
20260510184555 30 288 0.0 4.8 0.00 0.00 0.00 35 1012.8
20260510183057 29 141 1.6 4.8 0.00 0.00 0.00 35 1012.8
20260510181552 30 242 1.6 4.8 0.00 0.00 0.00 38 1012.9
20260510180051 30 217 0.0 3.2 0.00 0.00 0.00 43 1013.0
20260510174547 28 234 1.6 3.2 0.00 0.00 0.00 44 1013.0
20260510173055 28 292 1.6 3.2 0.00 0.00 0.00 45 1013.1
20260510171552 28 290 1.6 3.2 0.00 0.00 0.00 52 1013.2
20260510170043 28 150 1.6 6.4 0.00 0.00 0.00 43 1013.3
20260510164546 27 287 0.0 3.2 0.00 0.00 0.00 50 1013.5
20260510163039 27 303 1.6 4.8 0.00 0.00 0.00 45 1013.5
20260510161535 26 262 0.0 3.2 0.00 0.00 0.00 58 1013.6
20260510160036 26 294 0.0 4.8 0.00 0.00 0.00 59 1013.6
20260510154540 26 288 0.0 3.2 0.00 0.00 0.00 56 1013.9
20260510153038 26 129 0.0 3.2 0.00 0.00 0.00 58 1014.0
20260510151529 25 229 0.0 1.6 0.00 0.00 0.00 58 1014.1
20260510150026 25 241 1.6 3.2 0.00 0.00 0.00 64 1014.1
20260510144528 23 264 0.0 3.2 0.00 0.00 0.00 64 1014.0
20260510143030 22 311 0.0 1.6 0.00 0.00 0.00 66 1013.9
20260510141518 22 251 0.0 3.2 0.00 0.00 0.00 71 1013.8
20260510140014 22 223 1.6 4.8 0.00 0.00 0.00 75 1013.9
20260510134511 21 314 0.0 3.2 0.00 0.00 0.00 75 1013.9
20260510133009 20 243 0.0 3.2 0.00 0.00 0.00 82 1013.8
20260510131504 20 218 1.6 3.2 0.00 0.00 0.00 83 1013.7
20260510130058 18 210 0.0 1.6 0.00 0.00 0.00 88 1013.5
20260510124559 17 266 0.0 3.2 0.00 0.00 0.00 91 1013.2
20260510123102 16 150 0.0 0.0 0.00 0.00 0.00 92 1013.3
20260510121554 15 150 0.0 0.0 0.00 0.00 0.00 92 1013.2
20260510120054 15 150 0.0 0.0 0.00 0.00 0.00 92 1013.1
20260510114551 15 150 0.0 0.0 0.00 0.00 0.00 92 1013.0
20260510113049 15 150 0.0 1.6 0.00 0.00 0.00 92 1012.8
20260510111547 15 150 0.0 1.6 0.00 0.00 0.00 92 1012.5
20260510110050 15 150 0.0 0.0 0.00 0.00 0.00 92 1012.2
20260510104544 15 150 0.0 0.0 0.00 0.00 0.00 92 1012.0
20260510103043 15 150 0.0 0.0 0.00 0.00 0.00 92 1011.8
20260510101540 15 150 0.0 0.0 0.00 0.00 0.00 92 1011.7
20260510100036 15 150 0.0 0.0 0.00 0.00 0.00 91 1011.4
20260510094534 15 150 0.0 0.0 0.00 0.00 0.00 91 1011.3
20260510093033 15 150 0.0 0.0 0.00 0.00 0.00 91 1011.2
20260510091532 15 150 0.0 0.0 0.00 0.00 0.00 91 1010.8
20260510090032 15 150 0.0 0.0 0.00 0.00 0.00 91 1011.0
20260510084529 15 150 0.0 0.0 0.00 0.00 0.00 91 1010.7
20260510083027 15 150 0.0 0.0 0.00 0.00 0.00 91 1010.8
20260510081532 15 150 0.0 0.0 0.00 0.00 0.00 90 1010.6
20260510080031 15 150 0.0 0.0 0.00 0.00 0.00 90 1010.4
20260510074525 15 150 0.0 0.0 0.00 0.00 0.00 89 1010.4
20260510073030 16 150 0.0 0.0 0.00 0.00 0.00 89 1010.4
20260510071520 16 150 0.0 1.6 0.00 0.00 0.00 89 1010.3
20260510070019 16 224 0.0 0.0 0.00 0.00 0.00 89 1010.3
20260510064520 16 224 0.0 0.0 0.00 0.00 0.00 89 1010.3
20260510063023 16 224 0.0 0.0 0.00 0.00 0.00 89 1010.3
20260510061515 16 224 0.0 0.0 0.00 0.00 0.00 88 1010.3
20260510060019 16 224 0.0 0.0 0.00 0.00 0.00 87 1010.4
20260510054513 16 224 0.0 0.0 0.00 0.00 0.00 87 1010.5
20260510053013 17 224 0.0 0.0 0.00 0.00 0.00 86 1010.7
20260510051509 17 166 0.0 4.8 0.00 0.00 0.00 85 1010.8
20260510050006 17 319 0.0 4.8 0.00 0.00 0.00 87 1010.7
20260510044507 16 208 0.0 0.0 0.00 0.00 0.00 88 1010.7
20260510043003 16 208 0.0 0.0 0.00 0.00 0.00 88 1010.7
20260510041600 16 209 0.0 0.0 0.00 0.00 0.00 87 1010.7
20260510040110 16 208 0.0 1.6 0.00 0.00 0.00 87 1010.6
20260510034600 16 208 0.0 0.0 0.00 0.00 0.00 87 1010.5
20260510033055 16 209 0.0 0.0 0.00 0.00 0.00 86 1010.4
20260510031558 17 209 0.0 0.0 0.00 0.00 0.00 86 1010.3
20260510030055 17 209 0.0 0.0 0.00 0.00 0.00 86 1010.2
20260510024555 17 209 0.0 1.6 0.00 0.00 0.00 85 1010.3
20260510023054 17 209 0.0 1.6 0.00 0.00 0.00 85 1010.2
20260510021557 17 210 0.0 1.6 0.00 0.00 0.00 84 1010.1
20260510020057 17 210 0.0 1.6 0.00 0.00 0.00 82 1009.9
20260510014554 18 210 0.0 1.6 0.00 0.00 0.00 81 1009.7
20260510013051 18 210 0.0 0.0 0.00 0.00 0.00 80 1009.6
20260510011552 19 210 0.0 0.0 0.00 0.00 0.00 77 1009.3
20260510010051 20 210 0.0 1.6 0.00 0.00 0.00 75 1009.6
20260510004550 20 156 0.0 3.2 0.00 0.00 0.00 74 1009.4
20260510003052 20 178 0.0 3.2 0.00 0.00 0.00 73 1009.4
20260510001552 20 165 0.0 1.6 0.00 0.00 0.00 71 1008.8
20260510000051 21 211 0.0 1.6 0.00 0.00 0.00 69 1008.8
20260509234549 21 121 1.6 6.4 0.00 0.00 0.00 66 1008.5
20260509233052 22 229 0.0 6.4 0.00 0.00 0.00 64 1008.3
20260509231549 22 158 1.6 11.3 0.00 0.00 0.00 63 1008.3
20260509230046 23 154 1.6 6.4 0.00 0.00 0.00 59 1008.3
20260509224553 24 220 0.0 3.2 0.00 0.00 0.00 60 1008.4
20260509223038 24 224 0.0 4.8 0.00 0.00 0.00 57 1008.3
20260509221539 24 231 1.6 9.7 0.00 0.00 0.00 56 1008.3
20260509220034 24 229 0.0 9.7 0.00 0.00 0.00 57 1008.3
20260509214533 23 172 3.2 12.9 0.00 0.00 0.00 57 1008.3
20260509213032 23 169 0.0 4.8 0.00 0.00 0.00 59 1008.2
20260509211530 23 220 1.6 4.8 0.00 0.00 0.00 56 1008.3
20260509210032 23 219 3.2 11.3 0.00 0.00 0.00 54 1008.1
20260509204529 25 316 1.6 4.8 0.00 0.00 0.00 55 1008.0
20260509203025 24 338 0.0 4.8 0.00 0.00 0.00 59 1008.0
20260509201523 23 254 0.0 4.8 0.00 0.00 0.00 60 1008.3
20260509200022 23 181 0.0 8.0 0.00 0.00 0.00 58 1008.3
20260509194520 22 222 0.0 1.6 0.00 0.00 0.00 65 1008.5
20260509193018 23 105 0.0 4.8 0.00 0.00 0.00 62 1008.6
20260509191516 23 116 0.0 4.8 0.00 0.00 0.00 61 1008.8